Flag for Cyprus Weather past 2 weeks in Paphos, Cyprus

Now
72 °F

Passing clouds.


Feels Like: 75 °F
Forecast: 80 / 87 °F
Wind: 7 mph from Northeast

Location: Paphos Airport

Current Time: Sep 24, 2014 at 3:50:49 AM

Latest Report: Sep 24, 2014 at 3:00 AM


Visibility: N/A

Pressure: 29.92 "Hg

Humidity: 69%

Dew point: 61 °F

Location of PaphosLocation

Historic Weather in Paphos — Graph

°F

Paphos temperature yesterday

Maximum temperature yesterday: 86 °F (at 2:30 PM)
Minimum temperature yesterday: 70 °F (at 5:00 AM)
Average temperature yesterday: 78 °F

Past Weeks' High & Low Weather Summary

 TemperatureHumidityPressure
High86 °F (Sep 9, 1:00 PM)89% (Sep 23, 9:00 PM)29.95 "Hg (Sep 23, 9:00 PM)
Low68 °F (Sep 22, 6:00 AM)40% (Sep 21, 4:30 PM)29.77 "Hg (Sep 14, 6:00 PM)
Average79 °F70%29.86 "Hg
* Reported Sep 9 2:00 AM — Sep 24 2:30 AM, Paphos, Weather by CustomWeather, © 2014

Note: Actual official high and low records may vary slightly from our data, if they occured in-between our weather recording intervals... More about our weather records

Advertising

Paphos weather history for previous 24 hours

 ConditionsComfort  
Time TempWeatherWind HumidityBarometerVisibility
2:30 AM
Sep 24
73 °FPassing clouds.9 mph69%29.92 "HgN/A
2:00 AM73 °FPassing clouds.7 mph69%29.92 "HgN/A
1:30 AM73 °FPassing clouds.7 mph74%29.92 "HgN/A
1:00 AM73 °FPassing clouds.6 mph78%29.92 "HgN/A
12:30 AM73 °FPassing clouds.7 mph78%29.92 "HgN/A
12:00 AM73 °FPassing clouds.6 mph78%29.92 "HgN/A
11:30 PM
Sep 23
75 °FPassing clouds.7 mph78%29.92 "HgN/A
11:00 PM75 °FPassing clouds.6 mph78%29.92 "HgN/A
10:30 PM77 °FPassing clouds.3 mph83%29.92 "HgN/A
10:00 PM77 °FPassing clouds.2 mph83%29.95 "HgN/A
9:30 PM79 °FPassing clouds.3 mph84%29.92 "HgN/A
9:00 PM79 °FPassing clouds.5 mph89%29.92 "HgN/A
8:30 PM79 °FPassing clouds.3 mph84%29.92 "HgN/A
8:00 PM79 °FPassing clouds.5 mph84%29.92 "HgN/A
7:30 PM79 °FScattered clouds.6 mph84%29.92 "HgN/A
7:00 PM81 °FScattered clouds.7 mph79%29.89 "HgN/A
6:30 PM81 °FScattered clouds.9 mph79%29.89 "HgN/A
6:00 PM81 °FScattered clouds.10 mph79%29.89 "HgN/A
5:30 PM82 °FScattered clouds.10 mph74%29.89 "HgN/A
5:00 PM82 °FPassing clouds.10 mph74%29.89 "HgN/A
4:30 PM82 °FPassing clouds.9 mph74%29.89 "HgN/A
4:00 PM84 °FPassing clouds.10 mph70%29.89 "HgN/A
3:30 PM84 °FPassing clouds.10 mph70%29.89 "HgN/A
3:00 PM84 °FPassing clouds.10 mph70%29.89 "HgN/A
2:30 PM86 °FPassing clouds.8 mph66%29.89 "HgN/A
2:00 PM84 °FPassing clouds.9 mph70%29.92 "HgN/A
1:30 PM84 °FPassing clouds.8 mph70%29.92 "HgN/A
1:00 PM84 °FPassing clouds.8 mph66%29.92 "HgN/A
12:30 PM84 °FPassing clouds.7 mph66%29.92 "HgN/A
12:00 PM84 °FPassing clouds.7 mph66%29.92 "HgN/A
11:30 AM82 °FPassing clouds.7 mph70%29.92 "HgN/A
11:00 AM82 °FPassing clouds.6 mph70%29.92 "HgN/A
10:30 AM82 °FPassing clouds.7 mph62%29.92 "HgN/A
10:00 AM82 °FPassing clouds.7 mph58%29.92 "HgN/A
9:30 AM84 °FPassing clouds.5 mph55%29.89 "HgN/A
9:00 AM81 °FPassing clouds.6 mph58%29.89 "HgN/A
8:30 AM75 °FPassing clouds.5 mph61%29.89 "HgN/A
8:00 AM73 °FPassing clouds.7 mph69%29.89 "HgN/A
7:30 AM72 °FPassing clouds.9 mph73%29.89 "HgN/A
7:00 AM70 °FPassing clouds.9 mph78%29.86 "HgN/A
6:30 AM70 °FPassing clouds.7 mph78%29.86 "HgN/A
6:00 AM70 °FClear.8 mph78%29.86 "Hg10 mi
5:30 AM70 °FMild.7 mph83%29.86 "HgN/A
5:00 AM70 °FMild.3 mph83%29.86 "HgN/A
4:30 AM72 °FMild.6 mph83%29.86 "HgN/A
4:00 AM72 °FMild.6 mph83%29.86 "HgN/A
3:30 AM72 °FMild.6 mph83%29.86 "HgN/A
3:00 AM73 °FClear.3 mph83%29.83 "Hg10 mi
Weather by CustomWeather, © 2014

See weather overviewHow to use our weather pages